TimeCDT,TemperatureF,Dew PointF,Humidity,Sea Level PressureIn,VisibilityMPH,Wind Direction,Wind SpeedMPH,Gust SpeedMPH,PrecipitationIn,Events,Conditions,WindDirDegrees,DateUTC
12:15 AM,46.4,44.6,93,30.02,0.5,Calm,Calm,-,N/A,Fog,Fog,0,2013-10-18 05:15:00
12:35 AM,46.4,44.6,93,30.02,0.2,Calm,Calm,-,N/A,Fog,Fog,0,2013-10-18 05:35:00
12:55 AM,46.4,44.6,93,30.02,0.2,Calm,Calm,-,N/A,Fog,Fog,0,2013-10-18 05:55:00
1:15 AM,46.4,44.6,93,30.02,0.2,Calm,Calm,-,N/A,Fog,Fog,0,2013-10-18 06:15:00
1:35 AM,46.4,44.6,93,30.02,0.2,Calm,Calm,-,N/A,Fog,Fog,0,2013-10-18 06:35:00
1:55 AM,46.4,44.6,93,30.02,0.2,Calm,Calm,-,N/A,Fog,Fog,0,2013-10-18 06:55:00
2:15 AM,44.6,44.6,100,30.02,0.5,Calm,Calm,-,N/A,Fog,Fog,0,2013-10-18 07:15:00
2:35 AM,44.6,42.8,93,30.02,0.2,Calm,Calm,-,N/A,Fog,Fog,0,2013-10-18 07:35:00
2:55 AM,46.4,44.6,93,30.02,0.2,Calm,Calm,-,N/A,Fog,Fog,0,2013-10-18 07:55:00
3:15 AM,44.6,42.8,93,30.02,0.2,Calm,Calm,-,N/A,Fog,Fog,0,2013-10-18 08:15:00
3:35 AM,46.4,44.6,93,30.02,0.5,Calm,Calm,-,N/A,Fog,Fog,0,2013-10-18 08:35:00
3:55 AM,46.4,44.6,93,30.02,0.2,Calm,Calm,-,N/A,Fog,Fog,0,2013-10-18 08:55:00
4:15 AM,46.4,44.6,93,30.03,0.2,Calm,Calm,-,N/A,Fog,Fog,0,2013-10-18 09:15:00
4:35 AM,46.4,44.6,93,30.03,0.2,Calm,Calm,-,N/A,Fog,Fog,0,2013-10-18 09:35:00
4:55 AM,46.4,44.6,93,30.03,0.2,Calm,Calm,-,N/A,Fog,Fog,0,2013-10-18 09:55:00
5:15 AM,46.4,44.6,93,30.04,0.2,Calm,Calm,-,N/A,Fog,Fog,0,2013-10-18 10:15:00
5:35 AM,46.4,44.6,93,30.05,0.2,Calm,Calm,-,N/A,Fog,Fog,0,2013-10-18 10:35:00
5:55 AM,46.4,44.6,93,30.05,0.2,Calm,Calm,-,N/A,Fog,Fog,0,2013-10-18 10:55:00
6:15 AM,46.4,44.6,93,30.06,0.2,Calm,Calm,-,N/A,Fog,Fog,0,2013-10-18 11:15:00
6:35 AM,46.4,44.6,93,30.06,0.2,Calm,Calm,-,N/A,Fog,Fog,0,2013-10-18 11:35:00
6:55 AM,46.4,44.6,93,30.06,0.2,Calm,Calm,-,N/A,Fog,Fog,0,2013-10-18 11:55:00
7:15 AM,46.4,44.6,93,30.07,0.2,Calm,Calm,-,N/A,Fog,Fog,0,2013-10-18 12:15:00
7:35 AM,46.4,44.6,93,30.08,0.2,Calm,Calm,-,N/A,Fog,Fog,0,2013-10-18 12:35:00
7:55 AM,46.4,44.6,93,30.08,0.2,Calm,Calm,-,N/A,Fog,Fog,0,2013-10-18 12:55:00
8:15 AM,46.4,44.6,93,30.08,0.2,Calm,Calm,-,N/A,Fog,Fog,0,2013-10-18 13:15:00
8:35 AM,46.4,44.6,93,30.09,0.2,Calm,Calm,-,N/A,Fog,Fog,0,2013-10-18 13:35:00
8:55 AM,48.2,46.4,93,30.10,0.2,Calm,Calm,-,N/A,Fog,Fog,0,2013-10-18 13:55:00
9:15 AM,50.0,46.4,87,30.10,0.5,Calm,Calm,-,N/A,Fog,Fog,0,2013-10-18 14:15:00
9:35 AM,50.0,46.4,87,30.10,0.8,Calm,Calm,-,N/A,,Overcast,0,2013-10-18 14:35:00
9:55 AM,50.0,46.4,87,30.10,1.0,Calm,Calm,-,N/A,,Overcast,0,2013-10-18 14:55:00
10:15 AM,50.0,48.2,94,30.09,4.0,Calm,Calm,-,N/A,,Overcast,0,2013-10-18 15:15:00
10:35 AM,51.8,50.0,94,30.10,7.0,Calm,Calm,-,N/A,,Overcast,0,2013-10-18 15:35:00
10:55 AM,53.6,50.0,88,30.10,10.0,Calm,Calm,-,N/A,,Overcast,0,2013-10-18 15:55:00
11:15 AM,53.6,51.8,94,30.09,10.0,NNW,4.6,-,N/A,,Overcast,340,2013-10-18 16:15:00
11:35 AM,55.4,53.6,94,30.09,10.0,Calm,Calm,-,N/A,,Mostly Cloudy,0,2013-10-18 16:35:00
11:55 AM,55.4,53.6,94,30.08,10.0,Calm,Calm,-,N/A,,Mostly Cloudy,0,2013-10-18 16:55:00
12:15 PM,55.4,53.6,94,30.07,10.0,Calm,Calm,-,N/A,,Mostly Cloudy,0,2013-10-18 17:15:00
12:35 PM,57.2,55.4,94,30.06,10.0,Calm,Calm,-,N/A,,Scattered Clouds,0,2013-10-18 17:35:00
12:55 PM,60.8,48.2,63,30.05,10.0,Calm,Calm,-,N/A,,Scattered Clouds,0,2013-10-18 17:55:00
1:15 PM,60.8,44.6,55,30.04,10.0,WNW,4.6,-,N/A,,Scattered Clouds,290,2013-10-18 18:15:00
1:35 PM,62.6,44.6,52,30.04,10.0,NNW,4.6,-,N/A,,Clear,340,2013-10-18 18:35:00
1:55 PM,62.6,42.8,48,30.03,10.0,North,4.6,-,N/A,,Clear,350,2013-10-18 18:55:00
2:15 PM,62.6,42.8,48,30.02,10.0,Calm,Calm,-,N/A,,Scattered Clouds,0,2013-10-18 19:15:00
2:35 PM,60.8,42.8,52,30.02,10.0,NW,4.6,-,N/A,,Clear,320,2013-10-18 19:35:00
2:55 PM,62.6,41.0,45,30.01,10.0,NW,4.6,-,N/A,,Clear,320,2013-10-18 19:55:00
3:15 PM,62.6,41.0,45,30.01,10.0,Calm,Calm,-,N/A,,Clear,0,2013-10-18 20:15:00
3:35 PM,62.6,41.0,45,30.00,10.0,NW,6.9,-,N/A,,Clear,320,2013-10-18 20:35:00
3:55 PM,62.6,41.0,45,30.00,10.0,Calm,Calm,-,N/A,,Clear,0,2013-10-18 20:55:00
4:15 PM,62.6,41.0,45,30.00,10.0,North,3.5,-,N/A,,Clear,10,2013-10-18 21:15:00
4:35 PM,62.6,41.0,45,29.99,10.0,Calm,Calm,-,N/A,,Clear,0,2013-10-18 21:35:00
4:55 PM,62.6,41.0,45,29.99,10.0,North,4.6,-,N/A,,Clear,360,2013-10-18 21:55:00
5:15 PM,62.6,41.0,45,29.98,10.0,North,4.6,-,N/A,,Clear,360,2013-10-18 22:15:00
5:35 PM,59.0,42.8,55,29.98,10.0,NNW,3.5,-,N/A,,Clear,340,2013-10-18 22:35:00
5:55 PM,57.2,44.6,63,29.98,10.0,Calm,Calm,-,N/A,,Clear,0,2013-10-18 22:55:00
6:15 PM,55.4,46.4,72,29.99,10.0,Calm,Calm,-,N/A,,Clear,0,2013-10-18 23:15:00
6:35 PM,53.6,46.4,77,29.99,10.0,Calm,Calm,-,N/A,,Clear,0,2013-10-18 23:35:00
6:55 PM,53.6,48.2,82,29.99,10.0,Calm,Calm,-,N/A,,Clear,0,2013-10-18 23:55:00
7:15 PM,53.6,48.2,82,30.00,10.0,Calm,Calm,-,N/A,,Clear,0,2013-10-19 00:15:00
7:35 PM,51.8,48.2,88,30.00,10.0,Calm,Calm,-,N/A,,Clear,0,2013-10-19 00:35:00
7:55 PM,51.8,48.2,88,30.01,10.0,Calm,Calm,-,N/A,,Clear,0,2013-10-19 00:55:00
8:15 PM,51.8,48.2,88,30.02,10.0,Calm,Calm,-,N/A,,Clear,0,2013-10-19 01:15:00
8:35 PM,50.0,46.4,87,30.01,10.0,Calm,Calm,-,N/A,,Clear,0,2013-10-19 01:35:00
8:55 PM,51.8,50.0,94,30.02,10.0,Calm,Calm,-,N/A,,Clear,0,2013-10-19 01:55:00
9:15 PM,50.0,48.2,94,30.03,10.0,Calm,Calm,-,N/A,,Clear,0,2013-10-19 02:15:00
9:35 PM,51.8,48.2,88,30.03,10.0,Calm,Calm,-,N/A,,Clear,0,2013-10-19 02:35:00
9:55 PM,50.0,48.2,94,30.02,10.0,Calm,Calm,-,N/A,,Clear,0,2013-10-19 02:55:00
10:15 PM,50.0,50.0,100,30.04,10.0,Calm,Calm,-,N/A,,Clear,0,2013-10-19 03:15:00
10:35 PM,50.0,50.0,100,30.04,10.0,Calm,Calm,-,N/A,,Clear,0,2013-10-19 03:35:00
10:55 PM,50.0,48.2,94,30.03,10.0,Calm,Calm,-,N/A,,Clear,0,2013-10-19 03:55:00
11:15 PM,50.0,48.2,94,30.02,10.0,Calm,Calm,-,N/A,,Clear,0,2013-10-19 04:15:00
11:35 PM,50.0,48.2,94,30.02,7.0,Calm,Calm,-,N/A,,Clear,0,2013-10-19 04:35:00
11:55 PM,50.0,50.0,100,30.01,7.0,Calm,Calm,-,N/A,,Clear,0,2013-10-19 04:55:00